Location: Penton Mewsey
(51.2167°N, 1.5167°W)
Time: 18:02:14
(UTC+00:00)

Cosmos 2278 Rocket - Pass Details

Date: 30 March 2020
Orbit: 839 x 847 km, 71.0° (Epoch: 29 May)

Event Time Altitude Azimuth Distance (km) Brightness Sun altitude
Rises 19:03:53 0° 325° (NW) 3,415 6.2 -5.0°
Reaches altitude 10° 19:06:28 10° 318° (NW) 2,476 5.6 -5.4°
Maximum altitude 19:11:40 38° 252° (WSW) 1,271 3.8 -6.2°
Drops below altitude 10° 19:16:50 10° 186° (S) 2,465 4.5 -7.0°
Sets 19:19:25 0° 178° (S) 3,396 5.2 -7.4°
